contact:dominique.lefevre@mio.osupytheas.fr, maurice.libes@osupytheas.fr, didier.mallarino@osupytheas.fr
Project:EMSO http://www.emso-fr.org/EMSO-France
Depth: 2436.0 m
Title:EMSO Ligure Ouest : Data MII capteur AQUADOPP
Date,Latitude,Longitude,X_East,Y_North,Z_Up,Amplitude_X,Amplitude_Y,Amplitude_Z,Batterie,SoundSpeed,Heading,Pitch,Roll,Pressure,TIS,Speed,Direction
, degrees North, degrees East, m.s-1, m.s-1,m.s-1, 1, 1, 1, Volt, m.s-1, degree, degree, degree, dbar, degree_C, m.s-1, degree
2020-10-09T00:04:03,42.805,6.029,-0.021,-0.005,0.008,100.0,105.0,99.0,13.4,1505.3,323.3,-0.7,1.8,2470.52,13.32,0.021,256.6
2020-10-09T00:07:03,42.805,6.029,-0.043,-0.013,-0.031,101.0,107.0,98.0,13.3,1505.3,327.7,-0.7,1.8,2470.502,13.33,0.044,253.2
2020-10-09T00:10:03,42.805,6.029,-0.06,-0.005,-0.027,102.0,105.0,99.0,13.4,1505.4,324.3,-0.7,1.8,2470.47,13.34,0.06,265.2
2020-10-09T00:13:03,42.805,6.029,-0.023,-0.005,-0.03,101.0,105.0,99.0,13.4,1505.4,324.0,-0.7,1.8,2470.506,13.34,0.023,257.7
2020-10-09T00:16:03,42.805,6.029,-0.047,-0.026,-0.014,101.0,106.0,99.0,13.4,1505.4,325.0,-0.8,1.8,2470.468,13.34,0.053,241.1
2020-10-09T00:19:03,42.805,6.029,-0.006,0.005,-0.012,101.0,105.0,100.0,13.4,1505.4,324.8,-0.7,1.8,2470.496,13.34,0.007,309.8
2020-10-09T00:22:03,42.805,6.029,-0.023,-0.006,-0.001,101.0,105.0,99.0,13.4,1505.4,323.2,-0.7,1.8,2470.483,13.34,0.023,255.4
2020-10-09T00:25:03,42.805,6.029,0.002,-0.019,-0.043,101.0,107.0,99.0,13.4,1505.4,326.5,-0.7,1.9,2470.505,13.34,0.019,174.0
2020-10-09T00:28:03,42.805,6.029,-0.017,0.0,0.023,101.0,105.0,99.0,13.4,1505.4,324.4,-0.7,1.8,2470.445,13.34,0.017,270.0
2020-10-09T00:31:03,42.805,6.029,0.003,-0.015,0.026,103.0,106.0,99.0,13.4,1505.4,323.8,-0.7,1.9,2470.425,13.34,0.015,168.7
2020-10-09T00:34:03,42.805,6.029,0.034,-0.026,0.015,100.0,105.0,102.0,13.4,1505.4,327.8,-0.7,1.8,2470.445,13.34,0.042,127.4
2020-10-09T00:37:03,42.805,6.029,0.008,-0.021,-0.011,102.0,104.0,100.0,13.4,1505.4,326.4,-0.7,1.8,2470.403,13.34,0.022,159.1
2020-10-09T00:40:03,42.805,6.029,0.004,0.003,0.019,104.0,104.0,100.0,13.4,1505.4,323.5,-0.7,1.8,2470.43,13.34,0.005,53.1
2020-10-09T00:43:03,42.805,6.029,-0.022,-0.01,0.019,102.0,105.0,99.0,13.4,1505.4,326.3,-0.7,1.8,2470.46,13.34,0.024,245.6
2020-10-09T00:46:03,42.805,6.029,0.011,-0.014,0.037,107.0,103.0,101.0,13.4,1505.4,326.3,-0.7,1.8,2470.397,13.34,0.017,141.8
2020-10-09T00:49:03,42.805,6.029,-0.019,-0.018,-0.012,100.0,104.0,101.0,13.3,1505.4,327.2,-0.7,1.9,2470.46,13.34,0.026,226.5
2020-10-09T00:52:03,42.805,6.029,-0.025,-0.015,-0.018,102.0,105.0,100.0,13.4,1505.4,325.4,-0.7,1.8,2470.431,13.34,0.029,239.0
2020-10-09T00:55:03,42.805,6.029,-0.033,-0.009,-0.019,102.0,105.0,104.0,13.4,1505.4,327.9,-0.7,1.8,2470.387,13.34,0.034,254.7
2020-10-09T00:58:03,42.805,6.029,-0.052,0.002,-0.013,100.0,107.0,100.0,13.3,1505.4,323.5,-0.7,1.8,2470.431,13.34,0.052,272.2
2020-10-09T01:04:03,42.805,6.029,-0.029,-0.002,-0.006,101.0,108.0,101.0,13.4,1505.3,325.2,-0.7,1.8,2470.498,13.32,0.029,266.1
2020-10-09T01:07:02,42.805,6.029,-0.039,-0.007,-0.036,100.0,106.0,100.0,13.4,1505.3,325.9,-0.7,1.8,2470.46,13.33,0.039,259.8
2020-10-09T01:10:03,42.805,6.029,-0.033,-0.007,-0.009,99.0,105.0,101.0,13.3,1505.3,326.0,-0.7,1.8,2470.464,13.33,0.033,258.0
2020-10-09T01:13:03,42.805,6.029,-0.05,-0.04,-0.063,104.0,106.0,101.0,13.4,1505.4,327.4,-0.7,1.8,2470.428,13.34,0.064,231.3
2020-10-09T01:16:03,42.805,6.029,-0.081,-0.02,-0.067,100.0,104.0,101.0,13.4,1505.4,323.5,-0.7,1.8,2470.427,13.34,0.083,256.1
2020-10-09T01:19:03,42.805,6.029,-0.033,-0.023,-0.051,103.0,104.0,100.0,13.3,1505.4,325.3,-0.7,1.8,2470.448,13.34,0.04,235.1
2020-10-09T01:22:03,42.805,6.029,-0.021,-0.008,-0.063,100.0,107.0,101.0,13.4,1505.4,324.7,-0.7,1.8,2470.431,13.34,0.022,249.1
2020-10-09T01:25:03,42.805,6.029,-0.037,-0.006,-0.061,102.0,105.0,100.0,13.4,1505.4,328.4,-0.7,1.8,2470.414,13.34,0.037,260.8
2020-10-09T01:28:03,42.805,6.029,-0.032,0.001,-0.031,100.0,106.0,101.0,13.4,1505.4,323.6,-0.7,1.8,2470.429,13.34,0.032,271.8
2020-10-09T01:31:03,42.805,6.029,-0.014,-0.008,-0.013,103.0,106.0,100.0,13.4,1505.4,324.8,-0.7,1.8,2470.414,13.34,0.016,240.3
2020-10-09T01:34:03,42.805,6.029,-0.035,-0.012,-0.024,103.0,106.0,100.0,13.4,1505.4,325.0,-0.7,1.8,2470.463,13.34,0.037,251.1
2020-10-09T01:37:03,42.805,6.029,-0.034,-0.004,-0.019,104.0,106.0,100.0,13.3,1505.4,324.3,-0.7,1.8,2470.418,13.34,0.034,263.3
2020-10-09T01:40:03,42.805,6.029,-0.037,-0.004,-0.054,102.0,107.0,100.0,13.4,1505.4,326.6,-0.7,1.9,2470.453,13.34,0.037,263.8
2020-10-09T01:43:03,42.805,6.029,-0.023,-0.009,-0.034,100.0,106.0,100.0,13.3,1505.4,327.2,-0.7,1.8,2470.417,13.35,0.024,248.6
2020-10-09T01:46:03,42.805,6.029,-0.051,0.013,-0.006,101.0,107.0,99.0,13.4,1505.4,324.5,-0.7,1.8,2470.419,13.35,0.052,284.3
2020-10-09T01:49:03,42.805,6.029,-0.032,0.006,-0.005,102.0,107.0,100.0,13.3,1505.4,324.3,-0.7,1.8,2470.408,13.35,0.032,280.6
2020-10-09T01:52:03,42.805,6.029,0.011,-0.015,0.007,102.0,106.0,101.0,13.3,1505.4,328.6,-0.7,1.8,2470.421,13.35,0.018,143.7
2020-10-09T01:55:03,42.805,6.029,-0.034,0.011,-0.014,101.0,108.0,98.0,13.4,1505.4,325.7,-0.7,1.9,2470.42,13.34,0.035,287.9
2020-10-09T01:58:03,42.805,6.029,-0.026,-0.008,-0.046,102.0,107.0,99.0,13.4,1505.4,327.1,-0.7,1.9,2470.431,13.35,0.027,252.9
2020-10-09T02:04:03,42.805,6.029,-0.018,0.004,-0.038,102.0,106.0,100.0,13.4,1505.3,326.4,-0.8,1.8,2470.456,13.32,0.018,282.5
2020-10-09T02:07:03,42.805,6.029,-0.016,-0.008,-0.012,101.0,106.0,99.0,13.3,1505.3,323.6,-0.7,1.8,2470.439,13.33,0.017,243.4
2020-10-09T02:10:03,42.805,6.029,0.01,-0.018,-0.043,99.0,108.0,101.0,13.4,1505.3,327.4,-0.7,1.9,2470.458,13.33,0.02,150.9
2020-10-09T02:13:03,42.805,6.029,-0.011,0.025,0.008,103.0,106.0,99.0,13.4,1505.4,324.5,-0.7,1.8,2470.434,13.34,0.027,336.3
2020-10-09T02:16:03,42.805,6.029,-0.039,0.019,-0.009,101.0,107.0,99.0,13.3,1505.4,325.2,-0.7,1.9,2470.386,13.34,0.043,296.0
2020-10-09T02:19:03,42.805,6.029,0.0,-0.008,-0.012,100.0,108.0,99.0,13.4,1505.4,325.0,-0.7,1.8,2470.411,13.34,0.008,180.0
2020-10-09T02:22:03,42.805,6.029,-0.02,0.001,-0.017,103.0,106.0,100.0,13.4,1505.4,327.8,-0.7,1.8,2470.43,13.34,0.02,272.9
2020-10-09T02:25:03,42.805,6.029,-0.001,0.01,0.0,101.0,108.0,100.0,13.4,1505.4,323.3,-0.7,1.8,2470.418,13.34,0.01,354.3
2020-10-09T02:28:03,42.805,6.029,-0.019,0.0,0.002,102.0,106.0,99.0,13.4,1505.4,326.4,-0.7,1.8,2470.414,13.34,0.019,270.0
2020-10-09T02:31:03,42.805,6.029,-0.022,-0.012,-0.009,101.0,107.0,98.0,13.3,1505.4,326.1,-0.7,1.8,2470.479,13.34,0.025,241.4
2020-10-09T02:34:03,42.805,6.029,-0.031,0.002,-0.041,99.0,107.0,99.0,13.4,1505.4,324.2,-0.7,1.8,2470.411,13.34,0.031,273.7
2020-10-09T02:37:03,42.805,6.029,-0.012,0.004,0.012,101.0,106.0,99.0,13.4,1505.4,327.7,-0.7,1.8,2470.399,13.34,0.012,288.4
2020-10-09T02:40:03,42.805,6.029,-0.023,-0.011,-0.021,102.0,106.0,98.0,13.4,1505.4,326.5,-0.7,1.8,2470.397,13.34,0.025,244.4
2020-10-09T02:43:03,42.805,6.029,-0.026,-0.001,-0.007,103.0,106.0,99.0,13.4,1505.4,328.2,-0.7,1.8,2470.418,13.34,0.026,267.8
2020-10-09T02:46:03,42.805,6.029,0.012,0.011,0.029,103.0,106.0,100.0,13.4,1505.4,326.5,-0.7,1.8,2470.389,13.34,0.016,47.5
2020-10-09T02:49:03,42.805,6.029,-0.007,-0.015,-0.019,102.0,107.0,99.0,13.4,1505.4,326.3,-0.7,1.8,2470.426,13.34,0.016,205.0
2020-10-09T02:52:03,42.805,6.029,-0.014,0.008,-0.03,100.0,106.0,99.0,13.4,1505.4,324.0,-0.7,1.9,2470.377,13.34,0.016,299.7
2020-10-09T02:55:03,42.805,6.029,0.002,0.004,0.024,100.0,105.0,100.0,13.4,1505.4,328.1,-0.7,1.8,2470.382,13.34,0.004,26.6
2020-10-09T02:58:03,42.805,6.029,0.015,0.001,0.024,102.0,105.0,98.0,13.3,1505.4,325.8,-0.7,1.8,2470.398,13.34,0.015,86.2
2020-10-09T03:04:03,42.805,6.029,-0.031,0.007,0.0,100.0,106.0,100.0,13.4,1505.3,323.4,-0.7,1.8,2470.477,13.32,0.031,282.7
2020-10-09T03:07:03,42.805,6.029,-0.065,0.024,-0.006,101.0,106.0,100.0,13.3,1505.3,324.2,-0.7,1.9,2470.414,13.33,0.069,290.3
2020-10-09T03:10:03,42.805,6.029,-0.02,0.017,-0.002,101.0,106.0,99.0,13.4,1505.3,325.7,-0.7,1.8,2470.419,13.33,0.026,310.4
2020-10-09T03:13:03,42.805,6.029,-0.031,0.0,-0.017,100.0,107.0,100.0,13.4,1505.3,328.1,-0.7,1.9,2470.45,13.33,0.03,270.0
2020-10-09T03:16:03,42.805,6.029,-0.013,0.005,0.02,100.0,107.0,100.0,13.4,1505.4,325.7,-0.7,1.8,2470.391,13.34,0.013,291.0
2020-10-09T03:19:03,42.805,6.029,0.0,0.003,0.011,101.0,107.0,100.0,13.4,1505.4,327.6,-0.7,1.8,2470.406,13.34,0.003,0.0
2020-10-09T03:22:03,42.805,6.029,-0.034,-0.016,0.012,101.0,107.0,98.0,13.3,1505.4,322.7,-0.7,1.8,2470.403,13.34,0.037,244.8
2020-10-09T03:25:03,42.805,6.029,-0.009,-0.008,0.03,100.0,106.0,100.0,13.4,1505.4,326.6,-0.7,1.9,2470.391,13.34,0.012,228.4
2020-10-09T03:28:03,42.805,6.029,-0.021,-0.004,0.024,100.0,105.0,100.0,13.3,1505.4,324.6,-0.7,1.9,2470.375,13.34,0.021,259.2
2020-10-09T03:31:03,42.805,6.029,0.003,0.004,0.025,101.0,106.0,100.0,13.3,1505.4,326.9,-0.7,1.8,2470.379,13.34,0.005,36.9
2020-10-09T03:34:03,42.805,6.029,0.002,-0.007,-0.006,101.0,105.0,99.0,13.3,1505.4,327.5,-0.7,1.8,2470.423,13.34,0.007,164.1
2020-10-09T03:37:03,42.805,6.029,-0.019,0.0,0.047,101.0,106.0,100.0,13.3,1505.4,323.6,-0.7,1.8,2470.419,13.34,0.019,270.0
2020-10-09T03:40:03,42.805,6.029,-0.009,-0.003,0.007,101.0,106.0,99.0,13.3,1505.4,323.8,-0.7,1.8,2470.396,13.34,0.009,251.6
2020-10-09T03:43:03,42.805,6.029,-0.024,0.023,0.025,101.0,105.0,100.0,13.3,1505.4,326.7,-0.7,1.8,2470.376,13.34,0.033,313.8
2020-10-09T03:46:03,42.805,6.029,0.005,-0.005,0.027,101.0,106.0,101.0,13.3,1505.4,324.5,-0.7,1.8,2470.36,13.34,0.007,135.0
2020-10-09T03:49:03,42.805,6.029,0.001,0.002,0.047,100.0,106.0,100.0,13.3,1505.4,324.9,-0.7,1.8,2470.397,13.34,0.002,26.6
2020-10-09T03:52:03,42.805,6.029,0.0,0.002,0.021,102.0,106.0,100.0,13.4,1505.4,324.8,-0.7,1.8,2470.391,13.34,0.002,0.0
2020-10-09T03:55:03,42.805,6.029,0.009,-0.007,0.027,101.0,107.0,100.0,13.3,1505.4,326.7,-0.7,1.9,2470.373,13.34,0.011,127.9
2020-10-09T03:58:03,42.805,6.029,0.004,0.005,0.023,102.0,107.0,100.0,13.3,1505.4,325.0,-0.7,1.9,2470.363,13.34,0.006,38.7
2020-10-09T04:04:03,42.805,6.029,-0.007,0.002,0.002,102.0,105.0,99.0,13.4,1505.3,324.2,-0.7,1.8,2470.448,13.32,0.007,285.9
2020-10-09T04:07:03,42.805,6.029,0.012,-0.005,0.007,101.0,106.0,100.0,13.4,1505.3,328.0,-0.7,1.8,2470.413,13.33,0.013,112.6
2020-10-09T04:10:03,42.805,6.029,0.008,-0.007,0.0,101.0,105.0,100.0,13.4,1505.3,326.7,-0.7,1.9,2470.433,13.33,0.01,131.2
2020-10-09T04:13:03,42.805,6.029,0.009,0.014,0.03,101.0,106.0,99.0,13.3,1505.4,324.3,-0.7,1.9,2470.371,13.34,0.016,32.7
2020-10-09T04:16:03,42.805,6.029,0.021,-0.002,0.063,102.0,106.0,100.0,13.4,1505.4,325.0,-0.7,1.8,2470.408,13.34,0.021,95.4
2020-10-09T04:19:03,42.805,6.029,0.026,0.024,0.025,102.0,106.0,99.0,13.4,1505.4,328.1,-0.7,1.8,2470.401,13.34,0.035,47.3
2020-10-09T04:22:03,42.805,6.029,0.033,-0.003,0.053,102.0,105.0,101.0,13.4,1505.4,327.8,-0.7,1.9,2470.413,13.34,0.033,95.2
2020-10-09T04:25:03,42.805,6.029,0.019,0.005,0.058,102.0,105.0,98.0,13.4,1505.4,328.2,-0.7,1.9,2470.4,13.34,0.019,75.3
2020-10-09T04:28:03,42.805,6.029,-0.002,0.015,0.032,102.0,105.0,100.0,13.4,1505.4,326.7,-0.7,1.8,2470.395,13.34,0.015,352.4
2020-10-09T04:31:03,42.805,6.029,-0.044,0.002,-0.005,100.0,107.0,99.0,13.4,1505.4,323.9,-0.7,1.8,2470.401,13.34,0.044,272.6
2020-10-09T04:34:03,42.805,6.029,-0.032,0.014,-0.006,101.0,105.0,100.0,13.4,1505.4,324.8,-0.7,1.8,2470.404,13.34,0.034,293.6
2020-10-09T04:37:03,42.805,6.029,-0.02,-0.005,-0.002,101.0,105.0,100.0,13.3,1505.4,325.2,-0.7,1.8,2470.404,13.34,0.02,256.0
2020-10-09T04:40:03,42.805,6.029,-0.039,0.01,-0.006,101.0,106.0,101.0,13.4,1505.4,325.9,-0.7,1.9,2470.405,13.34,0.04,284.4
2020-10-09T04:43:03,42.805,6.029,0.009,0.008,0.038,101.0,108.0,100.0,13.4,1505.4,325.7,-0.7,1.8,2470.416,13.34,0.012,48.4
2020-10-09T04:46:03,42.805,6.029,-0.024,-0.012,-0.021,102.0,104.0,100.0,13.4,1505.4,327.1,-0.7,1.8,2470.368,13.34,0.026,243.4
2020-10-09T04:49:03,42.805,6.029,-0.045,0.011,-0.031,104.0,106.0,99.0,13.4,1505.4,326.6,-0.7,1.8,2470.367,13.34,0.046,283.7
2020-10-09T04:52:03,42.805,6.029,-0.035,-0.002,-0.052,102.0,107.0,100.0,13.3,1505.4,325.7,-0.7,1.8,2470.394,13.34,0.035,266.7
2020-10-09T04:55:03,42.805,6.029,-0.004,-0.008,-0.015,102.0,107.0,100.0,13.4,1505.4,323.3,-0.7,1.8,2470.367,13.34,0.008,206.6
2020-10-09T04:58:03,42.805,6.029,0.027,0.009,0.031,103.0,107.0,99.0,13.4,1505.4,325.2,-0.7,1.8,2470.375,13.34,0.028,71.6
2020-10-09T05:04:03,42.805,6.029,0.006,0.001,0.003,101.0,109.0,99.0,13.4,1505.3,324.7,-0.8,1.9,2470.401,13.32,0.006,80.5
2020-10-09T05:07:03,42.805,6.029,0.03,0.018,0.019,100.0,107.0,100.0,13.3,1505.3,325.4,-0.8,1.9,2470.44,13.33,0.034,59.0
2020-10-09T05:10:03,42.805,6.029,0.034,0.02,0.04,102.0,107.0,100.0,13.4,1505.3,322.8,-0.8,1.8,2470.408,13.33,0.039,59.5
2020-10-09T05:13:03,42.805,6.029,0.008,0.007,-0.009,102.0,107.0,99.0,13.3,1505.3,326.2,-0.7,1.8,2470.433,13.33,0.01,48.8
2020-10-09T05:16:03,42.805,6.029,0.012,0.027,0.049,101.0,108.0,100.0,13.4,1505.3,324.5,-0.7,1.9,2470.392,13.33,0.029,24.0
2020-10-09T05:19:03,42.805,6.029,-0.002,-0.005,0.003,102.0,109.0,100.0,13.4,1505.3,328.6,-0.7,1.8,2470.393,13.33,0.005,201.8
2020-10-09T05:22:03,42.805,6.029,0.014,0.0,0.0,102.0,109.0,100.0,13.3,1505.4,324.7,-0.7,1.8,2470.412,13.34,0.014,90.0
2020-10-09T05:25:03,42.805,6.029,0.043,0.005,0.019,101.0,108.0,99.0,13.4,1505.4,326.2,-0.7,1.8,2470.379,13.34,0.043,83.4
2020-10-09T05:28:03,42.805,6.029,0.018,-0.004,0.009,102.0,108.0,99.0,13.4,1505.4,325.1,-0.7,1.8,2470.414,13.34,0.018,102.5
2020-10-09T05:31:03,42.805,6.029,0.01,0.002,0.001,101.0,108.0,100.0,13.3,1505.4,327.7,-0.7,1.8,2470.419,13.34,0.01,78.7
2020-10-09T05:34:03,42.805,6.029,0.042,0.019,0.03,102.0,108.0,100.0,13.4,1505.4,324.5,-0.7,1.8,2470.346,13.34,0.046,65.7
2020-10-09T05:37:03,42.805,6.029,0.0,0.016,0.012,100.0,108.0,100.0,13.3,1505.4,322.5,-0.7,1.8,2470.378,13.34,0.016,0.0
2020-10-09T05:40:03,42.805,6.029,0.007,-0.011,-0.001,102.0,108.0,99.0,13.4,1505.4,326.9,-0.7,1.8,2470.403,13.34,0.013,147.5
2020-10-09T05:43:03,42.805,6.029,0.015,0.01,0.021,103.0,108.0,100.0,13.4,1505.4,325.3,-0.7,1.8,2470.386,13.34,0.018,56.3
2020-10-09T05:46:03,42.805,6.029,0.0,0.023,0.035,101.0,108.0,100.0,13.4,1505.4,325.5,-0.7,1.8,2470.42,13.34,0.023,0.0
2020-10-09T05:49:03,42.805,6.029,0.015,0.015,0.01,102.0,109.0,99.0,13.4,1505.4,327.9,-0.7,1.8,2470.375,13.34,0.021,45.0
2020-10-09T05:52:03,42.805,6.029,0.021,0.002,0.025,100.0,110.0,100.0,13.4,1505.4,328.1,-0.7,1.8,2470.372,13.34,0.021,84.6
2020-10-09T05:55:03,42.805,6.029,0.046,-0.002,0.036,102.0,111.0,100.0,13.4,1505.3,326.2,-0.7,1.8,2470.372,13.33,0.046,92.5
2020-10-09T05:58:03,42.805,6.029,0.037,0.018,0.043,101.0,109.0,100.0,13.4,1505.3,326.8,-0.7,1.8,2470.395,13.33,0.041,64.1
2020-10-09T06:04:03,42.805,6.029,-0.017,0.006,0.01,102.0,109.0,99.0,13.4,1505.3,325.1,-0.7,1.8,2470.402,13.31,0.018,289.4
2020-10-09T06:07:03,42.805,6.029,0.033,0.009,0.025,102.0,110.0,100.0,13.4,1505.3,324.1,-0.7,1.8,2470.382,13.32,0.034,74.7
2020-10-09T06:10:03,42.805,6.029,0.024,0.001,0.038,102.0,109.0,99.0,13.4,1505.3,328.2,-0.7,1.8,2470.433,13.33,0.024,87.6
2020-10-09T06:13:03,42.805,6.029,0.039,0.007,0.023,101.0,110.0,100.0,13.4,1505.3,325.2,-0.7,1.8,2470.419,13.33,0.039,79.8
2020-10-09T06:16:03,42.805,6.029,0.016,-0.016,0.009,102.0,109.0,100.0,13.4,1505.3,326.4,-0.7,1.8,2470.414,13.33,0.022,135.0
2020-10-09T06:19:03,42.805,6.029,0.013,0.023,0.019,103.0,111.0,101.0,13.3,1505.3,324.6,-0.7,1.8,2470.384,13.33,0.026,29.5
2020-10-09T06:22:03,42.805,6.029,0.023,-0.014,-0.036,102.0,111.0,99.0,13.4,1505.3,323.1,-0.7,1.8,2470.387,13.33,0.026,121.3
2020-10-09T06:25:03,42.805,6.029,-0.011,-0.006,-0.009,102.0,113.0,102.0,13.4,1505.3,327.2,-0.7,1.8,2470.423,13.33,0.012,241.4
2020-10-09T06:28:03,42.805,6.029,-0.017,0.003,-0.002,103.0,110.0,100.0,13.3,1505.3,324.3,-0.7,1.9,2470.425,13.33,0.017,280.0
2020-10-09T06:31:03,42.805,6.029,0.013,-0.01,-0.002,102.0,112.0,99.0,13.3,1505.3,323.6,-0.7,1.8,2470.406,13.33,0.016,127.6
2020-10-09T06:34:03,42.805,6.029,-0.013,0.01,0.009,102.0,114.0,100.0,13.3,1505.3,326.2,-0.7,1.8,2470.391,13.33,0.016,307.6
2020-10-09T06:37:03,42.805,6.029,-0.002,0.021,-0.004,102.0,113.0,100.0,13.4,1505.3,326.0,-0.7,1.8,2470.386,13.33,0.021,354.6
2020-10-09T06:40:03,42.805,6.029,-0.012,0.025,0.022,102.0,113.0,100.0,13.4,1505.3,324.2,-0.7,1.8,2470.382,13.33,0.027,334.4
2020-10-09T06:43:03,42.805,6.029,-0.016,-0.001,-0.007,102.0,114.0,99.0,13.4,1505.3,327.7,-0.7,1.8,2470.44,13.33,0.016,266.4
2020-10-09T06:46:03,42.805,6.029,-0.008,-0.012,0.001,102.0,111.0,100.0,13.4,1505.3,326.5,-0.7,1.8,2470.41,13.33,0.014,213.7
2020-10-09T06:49:03,42.805,6.029,-0.005,-0.007,0.002,101.0,111.0,99.0,13.3,1505.3,327.1,-0.7,1.8,2470.412,13.33,0.008,215.5
2020-10-09T06:52:03,42.805,6.029,0.0,0.004,0.022,102.0,110.0,103.0,13.3,1505.3,327.0,-0.7,1.8,2470.386,13.33,0.004,0.0
2020-10-09T06:55:03,42.805,6.029,-0.006,0.011,0.01,101.0,112.0,100.0,13.4,1505.3,328.5,-0.7,1.8,2470.373,13.33,0.012,331.4
2020-10-09T06:58:03,42.805,6.029,0.006,0.003,0.008,102.0,112.0,100.0,13.3,1505.3,326.8,-0.7,1.8,2470.415,13.33,0.006,63.4
2020-10-09T07:04:03,42.805,6.029,-0.033,0.008,-0.015,103.0,113.0,101.0,13.4,1505.3,326.5,-0.7,1.8,2470.402,13.31,0.033,283.6
2020-10-09T07:07:03,42.805,6.029,-0.003,-0.002,-0.008,101.0,113.0,100.0,13.3,1505.3,327.9,-0.7,1.8,2470.432,13.32,0.003,236.3
2020-10-09T07:10:03,42.805,6.029,0.0,-0.002,0.036,101.0,113.0,99.0,13.4,1505.3,326.3,-0.7,1.8,2470.454,13.32,0.002,180.0
2020-10-09T07:13:03,42.805,6.029,-0.024,-0.012,-0.008,102.0,112.0,100.0,13.4,1505.3,325.8,-0.7,1.8,2470.417,13.32,0.026,243.4
2020-10-09T07:16:03,42.805,6.029,-0.015,0.001,0.018,102.0,110.0,100.0,13.3,1505.3,325.9,-0.7,1.9,2470.43,13.32,0.015,273.8
2020-10-09T07:19:03,42.805,6.029,-0.009,-0.001,0.0,102.0,111.0,100.0,13.4,1505.3,326.7,-0.7,1.8,2470.441,13.33,0.009,263.7
2020-10-09T07:22:03,42.805,6.029,-0.022,0.004,-0.001,103.0,111.0,100.0,13.4,1505.3,326.2,-0.7,1.9,2470.393,13.33,0.022,280.3
2020-10-09T07:25:03,42.805,6.029,-0.015,0.008,0.046,102.0,109.0,100.0,13.4,1505.3,328.1,-0.7,1.8,2470.446,13.33,0.017,298.1
2020-10-09T07:28:03,42.805,6.029,-0.018,0.003,0.0,102.0,111.0,100.0,13.3,1505.3,325.2,-0.8,1.8,2470.417,13.33,0.018,279.5
2020-10-09T07:31:03,42.805,6.029,-0.002,0.011,-0.002,99.0,112.0,100.0,13.4,1505.3,324.5,-0.7,1.8,2470.444,13.33,0.011,349.7
2020-10-09T07:34:03,42.805,6.029,-0.031,0.014,-0.008,103.0,111.0,99.0,13.4,1505.3,328.3,-0.7,1.8,2470.436,13.33,0.034,294.3
2020-10-09T07:37:03,42.805,6.029,-0.028,-0.001,0.021,102.0,112.0,98.0,13.4,1505.3,326.5,-0.7,1.8,2470.431,13.33,0.028,268.0
2020-10-09T07:40:03,42.805,6.029,-0.035,0.008,-0.037,103.0,111.0,100.0,13.4,1505.3,326.8,-0.7,1.8,2470.417,13.33,0.035,282.9
2020-10-09T07:43:03,42.805,6.029,-0.025,-0.017,-0.029,102.0,112.0,100.0,13.4,1505.3,327.7,-0.7,1.8,2470.428,13.33,0.03,235.8
2020-10-09T07:46:03,42.805,6.029,-0.01,-0.004,-0.016,101.0,111.0,100.0,13.4,1505.3,326.3,-0.7,1.8,2470.406,13.33,0.01,248.2
2020-10-09T07:49:03,42.805,6.029,0.0,0.004,-0.024,101.0,114.0,99.0,13.4,1505.3,324.4,-0.7,1.8,2470.362,13.33,0.004,0.0
2020-10-09T07:52:03,42.805,6.029,-0.004,0.013,0.024,103.0,112.0,100.0,13.3,1505.3,325.4,-0.7,1.8,2470.438,13.32,0.013,342.9
2020-10-09T07:55:03,42.805,6.029,0.018,0.002,0.018,102.0,115.0,100.0,13.4,1505.3,326.8,-0.7,1.8,2470.452,13.32,0.018,83.7
2020-10-09T07:58:03,42.805,6.029,-0.015,-0.004,-0.016,103.0,114.0,99.0,13.4,1505.3,325.9,-0.7,1.8,2470.399,13.32,0.015,255.1
2020-10-09T08:04:03,42.805,6.029,0.006,-0.014,-0.003,102.0,114.0,100.0,13.4,1505.2,328.2,-0.7,1.8,2470.481,13.3,0.015,156.8
2020-10-09T08:07:03,42.805,6.029,0.035,-0.001,0.02,102.0,114.0,99.0,13.4,1505.3,323.1,-0.7,1.8,2470.445,13.31,0.035,91.6
2020-10-09T08:10:03,42.805,6.029,-0.017,0.005,-0.014,102.0,116.0,100.0,13.3,1505.3,324.0,-0.7,1.8,2470.441,13.32,0.017,286.4
2020-10-09T08:13:03,42.805,6.029,0.004,-0.007,0.003,101.0,114.0,99.0,13.3,1505.3,323.6,-0.7,1.8,2470.455,13.32,0.008,150.3
2020-10-09T08:16:03,42.805,6.029,0.002,-0.002,0.031,101.0,114.0,99.0,13.3,1505.3,323.4,-0.7,1.9,2470.441,13.32,0.002,135.0
2020-10-09T08:19:03,42.805,6.029,-0.013,-0.001,-0.061,102.0,114.0,100.0,13.4,1505.3,325.2,-0.7,1.8,2470.461,13.32,0.013,265.6
2020-10-09T08:22:03,42.805,6.029,-0.004,-0.01,-0.01,102.0,114.0,98.0,13.4,1505.3,328.2,-0.7,1.9,2470.466,13.32,0.01,201.8
2020-10-09T08:25:03,42.805,6.029,-0.006,0.02,0.045,101.0,112.0,99.0,13.3,1505.3,324.1,-0.7,1.8,2470.44,13.32,0.02,343.3
2020-10-09T08:31:03,42.805,6.029,0.006,0.001,0.0,102.0,112.0,100.0,13.4,1505.2,323.0,-0.7,1.8,2470.475,13.3,0.006,80.5
2020-10-09T08:34:03,42.805,6.029,-0.009,0.011,-0.014,103.0,112.0,100.0,13.4,1505.3,324.5,-0.7,1.8,2470.479,13.31,0.014,320.7
2020-10-09T08:37:03,42.805,6.029,0.013,-0.006,-0.014,103.0,111.0,99.0,13.3,1505.3,323.3,-0.7,1.8,2470.454,13.32,0.014,114.8
2020-10-09T08:40:03,42.805,6.029,-0.032,0.014,0.011,102.0,112.0,100.0,13.4,1505.3,326.5,-0.7,1.8,2470.447,13.32,0.034,293.6
2020-10-09T08:43:03,42.805,6.029,0.003,-0.001,-0.018,101.0,112.0,99.0,13.4,1505.3,325.9,-0.7,1.8,2470.491,13.32,0.003,108.4
2020-10-09T08:46:03,42.805,6.029,-0.021,0.002,-0.024,100.0,113.0,101.0,13.3,1505.3,325.5,-0.7,1.8,2470.501,13.32,0.021,275.4
2020-10-09T08:49:03,42.805,6.029,-0.006,0.0,0.0,102.0,113.0,100.0,13.3,1505.3,324.6,-0.7,1.8,2470.502,13.32,0.006,270.0
2020-10-09T08:52:03,42.805,6.029,0.004,0.009,0.019,102.0,112.0,100.0,13.3,1505.3,325.7,-0.7,1.8,2470.492,13.32,0.009,24.0
2020-10-09T08:55:03,42.805,6.029,-0.017,-0.002,-0.002,102.0,113.0,99.0,13.4,1505.3,325.5,-0.7,1.8,2470.452,13.32,0.017,263.3
2020-10-09T08:58:03,42.805,6.029,-0.025,0.009,0.001,102.0,112.0,99.0,13.4,1505.3,326.6,-0.7,1.9,2470.499,13.32,0.026,289.8
2020-10-09T09:04:03,42.805,6.029,0.021,0.008,0.005,102.0,112.0,100.0,13.4,1505.2,323.7,-0.7,1.8,2470.542,13.3,0.022,69.1
2020-10-09T09:07:03,42.805,6.029,-0.001,0.002,0.007,102.0,113.0,100.0,13.4,1505.3,326.9,-0.7,1.8,2470.503,13.31,0.002,333.4
2020-10-09T09:10:03,42.805,6.029,0.016,-0.006,0.012,105.0,110.0,100.0,13.4,1505.3,324.8,-0.8,1.9,2470.499,13.32,0.017,110.6
2020-10-09T09:13:03,42.805,6.029,-0.018,-0.007,-0.012,103.0,112.0,99.0,13.4,1505.3,325.0,-0.7,1.9,2470.491,13.32,0.019,248.8
2020-10-09T09:16:03,42.805,6.029,-0.014,-0.008,-0.023,102.0,113.0,100.0,13.4,1505.3,322.9,-0.7,1.8,2470.499,13.32,0.016,240.3
2020-10-09T09:19:03,42.805,6.029,-0.007,0.019,-0.009,102.0,112.0,100.0,13.4,1505.3,324.3,-0.7,1.8,2470.526,13.32,0.02,339.8
2020-10-09T09:22:03,42.805,6.029,-0.007,0.0,-0.032,103.0,114.0,100.0,13.3,1505.3,327.0,-0.7,1.8,2470.497,13.32,0.007,270.0
2020-10-09T09:25:03,42.805,6.029,0.009,-0.001,-0.019,101.0,112.0,99.0,13.4,1505.3,325.2,-0.7,1.8,2470.495,13.32,0.009,96.3
2020-10-09T09:28:03,42.805,6.029,0.01,0.013,0.034,101.0,113.0,100.0,13.3,1505.3,326.3,-0.7,1.9,2470.524,13.32,0.016,37.6
2020-10-09T09:31:03,42.805,6.029,-0.006,-0.013,-0.009,102.0,111.0,101.0,13.4,1505.3,322.9,-0.7,1.8,2470.532,13.32,0.014,204.8
2020-10-09T09:34:03,42.805,6.029,0.006,-0.005,-0.01,102.0,112.0,100.0,13.4,1505.3,326.5,-0.7,1.8,2470.484,13.32,0.007,129.8
2020-10-09T09:37:03,42.805,6.029,-0.023,-0.005,-0.008,103.0,111.0,100.0,13.4,1505.3,325.1,-0.7,1.9,2470.465,13.32,0.023,257.7
2020-10-09T09:40:03,42.805,6.029,0.011,-0.003,0.012,102.0,111.0,100.0,13.4,1505.3,328.2,-0.7,1.9,2470.487,13.32,0.011,105.3
2020-10-09T09:43:03,42.805,6.029,0.022,-0.001,0.007,103.0,111.0,100.0,13.4,1505.3,324.0,-0.7,1.8,2470.519,13.32,0.022,92.6
2020-10-09T09:46:03,42.805,6.029,0.02,-0.002,-0.006,101.0,111.0,100.0,13.3,1505.3,326.0,-0.7,1.8,2470.501,13.32,0.02,95.7
2020-10-09T09:49:03,42.805,6.029,0.016,0.003,-0.005,102.0,113.0,101.0,13.3,1505.3,324.8,-0.7,1.8,2470.512,13.32,0.016,79.4
2020-10-09T09:52:03,42.805,6.029,0.001,-0.012,0.046,101.0,112.0,99.0,13.4,1505.3,327.7,-0.7,1.8,2470.551,13.32,0.012,175.2
2020-10-09T09:55:03,42.805,6.029,0.012,-0.012,0.008,102.0,112.0,101.0,13.4,1505.3,326.9,-0.7,1.8,2470.499,13.32,0.016,135.0
2020-10-09T09:58:03,42.805,6.029,0.025,0.007,0.024,102.0,111.0,100.0,13.4,1505.3,323.6,-0.7,1.8,2470.508,13.32,0.025,74.4
2020-10-09T10:04:03,42.805,6.029,0.032,-0.008,0.012,101.0,110.0,100.0,13.4,1505.2,326.4,-0.7,1.8,2470.56,13.3,0.032,104.0